Grand Junction, CO

10:58 PM MDT on September 27, 2016 (GMT -0600)
Walker

Weather History for KGJT - November, 2014

Change the Weather History Date:

Sunday, November 23, 2014

  Actual Average Record
Temperature  
Mean Temperature 33 °F 35 °F  
Max Temperature 43 °F 46 °F 62 °F (1939)
Min Temperature 22 °F 25 °F 4 °F (2003)
Degree Days  
Heating Degree Days 32 30  
Month to date heating degree days 649 558  
Since 1 July heating degree days 1015 1006  
Cooling Degree Days 0 0  
Month to date cooling degree days 0 0  
Year to date cooling degree days 1046 1125  
Moisture  
Dew Point 25 °F    
Average Humidity 67    
Maximum Humidity 100    
Minimum Humidity 34    
Precipitation  
Precipitation T in 0.02 in 0.71 in (1895)
Month to date precipitation 0.39 0.58  
Year to date precipitation 10.90 8.68  
Snow  
Snow T in 0.00 in 1.20 in (2013)
Month to date snowfall T 1.3  
Since 1 July snowfall T 1.7  
Since 1 September snowfall T 1.7  
Snow Depth 0.00 in    
Sea Level Pressure  
Sea Level Pressure 29.99 in    
Wind  
Wind Speed 10 mph (NNW)    
Max Wind Speed 24 mph    
Max Gust Speed 32 mph    
Visibility 10 miles    
Events Snow    
T = Trace of Precipitation, MM = Missing Value Source: NWS Daily Summary

Daily Weather History Graph

Daily Weather History Graph

Search for Another Location

Airport or City:

Trip Planner

Search our weather history database for the weather conditions in past years. The results will help you decide how hot, cold, wet, or windy it might be!

Date:

Astronomy

Nov. 23, 2014 Rise Set
Actual Time 7:06 AM MST 4:54 PM MST
Civil Twilight 6:37 AM MST 5:23 PM MST
Nautical Twilight 6:04 AM MST 5:56 PM MST
Astronomical Twilight 5:32 AM MST 6:28 PM MST
Moon 8:05 AM MST (11/23) 6:20 PM MST (11/23)
Length of Visible Light 10h 46m
Length of Day
9h 48m
New Moon, 2% of the Moon is Illuminated
Nov 23
New Moon
Nov 29
First Quarter
Dec 6
Full
Dec 14
Last Quarter
Dec 21
New

Hourly Weather History & Observations

Time (MST) Temp. Windchill Dew Point Humidity Pressure Visibility Wind Dir Wind Speed Gust Speed Precip Events Conditions
12:53 AM 33.1 °F - 33.1 °F 100% 29.78 in 9.0 mi Calm Calm - 0.00 in   Mostly Cloudy
1:53 AM 32.0 °F 25.6 °F 32.0 °F 100% 29.84 in 7.0 mi WNW 6.9 mph - N/A   Overcast
2:08 AM 32.0 °F 25.6 °F 32.0 °F 100% 29.83 in 7.0 mi WNW 6.9 mph - N/A   Overcast
2:16 AM 30.9 °F 26.2 °F 30.9 °F 100% 29.82 in 7.0 mi WNW 4.6 mph - N/A   Mostly Cloudy
2:23 AM 30.9 °F 25.2 °F 30.9 °F 100% 29.83 in 8.0 mi WNW 5.8 mph - N/A   Scattered Clouds
2:53 AM 30.9 °F 22.8 °F 30.9 °F 100% 29.83 in 10.0 mi NNW 9.2 mph - N/A   Mostly Cloudy
3:53 AM 32.0 °F 28.7 °F 30.9 °F 96% 29.84 in 10.0 mi Variable 3.5 mph - N/A   Scattered Clouds
4:12 AM 33.1 °F 27.7 °F 32.0 °F 96% 29.84 in 10.0 mi ENE 5.8 mph - N/A   Mostly Cloudy
4:31 AM 33.1 °F 27.7 °F 32.0 °F 96% 29.85 in 10.0 mi North 5.8 mph - N/A   Overcast
4:53 AM 34.0 °F 28.8 °F 30.9 °F 89% 29.85 in 10.0 mi Variable 5.8 mph - N/A   Mostly Cloudy
5:53 AM 30.0 °F 26.5 °F 30.0 °F 100% 29.90 in 10.0 mi ENE 3.5 mph - N/A   Mostly Cloudy
6:53 AM 30.9 °F 25.2 °F 30.9 °F 100% 29.92 in 10.0 mi NE 5.8 mph - N/A   Overcast
7:53 AM 34.0 °F 23.4 °F 27.0 °F 75% 29.93 in 6.0 mi NW 17.3 mph 21.9 mph 0.00 in Snow Light Snow
8:53 AM 30.9 °F 22.8 °F 30.9 °F 100% 30.01 in 10.0 mi NNW 9.2 mph - 0.00 in   Overcast
9:53 AM 33.1 °F 23.0 °F 28.0 °F 82% 30.02 in 10.0 mi WNW 15.0 mph - 0.00 in   Overcast
10:45 AM 35.1 °F 25.9 °F 27.0 °F 72% 30.01 in 10.0 mi WNW 13.8 mph - N/A   Overcast
10:53 AM 35.1 °F 26.4 °F 27.0 °F 72% 30.03 in 10.0 mi WNW 12.7 mph - N/A   Overcast
11:53 AM 37.0 °F 28.5 °F 24.1 °F 59% 30.02 in 10.0 mi WNW 13.8 mph - N/A   Scattered Clouds
12:53 PM 39.9 °F 33.9 °F 24.1 °F 53% 30.01 in 10.0 mi NW 9.2 mph - N/A   Clear
1:53 PM 39.9 °F 31.4 °F 24.1 °F 53% 30.01 in 10.0 mi West 16.1 mph - N/A   Scattered Clouds
2:39 PM 41.0 °F 32.2 °F 17.1 °F 38% 30.00 in 10.0 mi North 18.4 mph - N/A   Mostly Cloudy
2:53 PM 41.0 °F 33.1 °F 16.0 °F 36% 30.01 in 10.0 mi North 15.0 mph - N/A   Partly Cloudy
3:53 PM 39.9 °F 32.5 °F 17.1 °F 40% 30.03 in 10.0 mi NW 12.7 mph - N/A   Clear
4:53 PM 35.1 °F 26.4 °F 18.0 °F 50% 30.06 in 10.0 mi NW 12.7 mph - N/A   Clear
5:53 PM 35.1 °F 24.8 °F 17.1 °F 48% 30.09 in 10.0 mi NNW 17.3 mph - N/A   Partly Cloudy
6:53 PM 30.9 °F 22.8 °F 19.0 °F 61% 30.12 in 10.0 mi North 9.2 mph - N/A   Clear
7:53 PM 25.0 °F - 18.0 °F 75% 30.15 in 10.0 mi Calm Calm - N/A   Clear
8:53 PM 25.0 °F 14.8 °F 17.1 °F 72% 30.19 in 10.0 mi NW 10.4 mph - N/A   Clear
9:53 PM 24.1 °F 17.0 °F 17.1 °F 75% 30.20 in 10.0 mi NE 5.8 mph - N/A   Clear
10:53 PM 27.0 °F 18.7 °F 15.1 °F 61% 30.17 in 10.0 mi North 8.1 mph - N/A   Clear
11:53 PM 23.0 °F 18.4 °F 15.1 °F 72% 30.18 in 10.0 mi SE 3.5 mph - N/A   Clear